UAL2435 KSMF-KEWR

Flight info

Callsign UAL2435
Flight time 4h 46m
Altitude 35000
Route SCTWN4 RALEY JSICA Q128 EDLES KD54S BOYET KD60W FIMER KP66C KP69E BOOLA KG75K FAHEY KG81O RUBKI Q140 KODEY HNK FLOSI4
Aircraft B739/M-SDE2E3FGHIRWXY/LB1

Departure

Time 2026-04-30 03:55
Airport Sacramento International Airport (KSMF)

Arrival

Time 2026-04-30 08:41
Airport Newark Liberty International Airport (KEWR)
Time Latitude Longitude Altitude Speed Heading
2026-04-30 03:36 38.69620 -121.59192 28 ft 0 kts 180°
2026-04-30 03:45 38.69631 -121.59192 28 ft 2 kts 180°
2026-04-30 03:45 38.69646 -121.59192 28 ft 2 kts 180°
2026-04-30 03:46 38.69661 -121.59192 28 ft 2 kts 173°
2026-04-30 03:46 38.69675 -121.59198 28 ft 2 kts 149°
2026-04-30 03:46 38.69687 -121.59210 28 ft 2 kts 129°
2026-04-30 03:46 38.69694 -121.59226 28 ft 2 kts 108°
2026-04-30 03:47 38.69697 -121.59245 28 ft 2 kts 88°
2026-04-30 03:47 38.69697 -121.59249 28 ft 0 kts 87°
2026-04-30 03:48 38.69698 -121.59218 28 ft 8 kts 89°
2026-04-30 03:49 38.69697 -121.59124 28 ft 12 kts 91°
2026-04-30 03:49 38.69694 -121.59005 28 ft 14 kts 91°
2026-04-30 03:49 38.69693 -121.58874 28 ft 14 kts 90°
2026-04-30 03:49 38.69691 -121.58741 28 ft 14 kts 90°
2026-04-30 03:50 38.69701 -121.58640 28 ft 10 kts 53°
2026-04-30 03:50 38.69750 -121.58596 28 ft 7 kts 55°
2026-04-30 03:50 38.69763 -121.58505 28 ft 13 kts 89°
2026-04-30 03:50 38.69762 -121.58382 28 ft 12 kts 90°
2026-04-30 03:51 38.69781 -121.58299 27 ft 10 kts 34°
2026-04-30 03:51 38.69875 -121.58285 28 ft 17 kts 360°
2026-04-30 03:51 38.70016 -121.58283 28 ft 22 kts
2026-04-30 03:51 38.70182 -121.58280 28 ft 24 kts
2026-04-30 03:52 38.70359 -121.58277 28 ft 25 kts
2026-04-30 03:52 38.70525 -121.58275 28 ft 21 kts
2026-04-30 03:52 38.70639 -121.58272 28 ft 14 kts
2026-04-30 03:52 38.70702 -121.58195 28 ft 12 kts 80°
2026-04-30 03:53 38.70706 -121.58099 28 ft 9 kts 89°
2026-04-30 03:53 38.70699 -121.58025 28 ft 6 kts 128°
2026-04-30 03:53 38.70668 -121.58009 28 ft 0 kts 175°
2026-04-30 03:53 38.70665 -121.58009 28 ft 6 kts 175°
2026-04-30 03:54 38.70414 -121.58012 28 ft 63 kts 181°
2026-04-30 03:54 38.69801 -121.58022 25 ft 111 kts 180°
2026-04-30 03:54 38.68881 -121.58036 25 ft 150 kts 181°
2026-04-30 03:54 38.67757 -121.58070 215 ft 163 kts 182°
2026-04-30 03:55 38.66610 -121.58095 567 ft 168 kts 180°
2026-04-30 03:55 38.65430 -121.57916 873 ft 176 kts 163°
2026-04-30 03:55 38.64285 -121.57217 1092 ft 194 kts 146°
2026-04-30 03:55 38.63189 -121.56024 1260 ft 217 kts 134°
2026-04-30 03:56 38.62454 -121.54225 1438 ft 241 kts 97°
2026-04-30 03:56 38.62635 -121.52043 1709 ft 257 kts 73°
2026-04-30 03:56 38.63097 -121.49775 2056 ft 267 kts 78°
2026-04-30 03:56 38.63269 -121.47449 2598 ft 264 kts 90°
2026-04-30 03:57 38.63200 -121.45107 3192 ft 263 kts 91°
2026-04-30 03:57 38.63152 -121.42773 3780 ft 263 kts 89°
2026-04-30 03:57 38.63178 -121.40443 4368 ft 262 kts 86°
2026-04-30 03:57 38.63242 -121.38121 4959 ft 260 kts 85°
2026-04-30 03:58 38.63312 -121.35837 5549 ft 259 kts 85°
2026-04-30 03:58 38.63380 -121.33513 5971 ft 264 kts 86°
2026-04-30 03:58 38.63444 -121.31128 6343 ft 272 kts 86°
2026-04-30 03:58 38.63506 -121.28713 6783 ft 274 kts 86°
2026-04-30 03:59 38.63568 -121.26259 7249 ft 276 kts 86°
2026-04-30 03:59 38.63629 -121.23800 7715 ft 277 kts 86°
2026-04-30 03:59 38.63689 -121.21363 8188 ft 277 kts 86°
2026-04-30 03:59 38.63751 -121.18882 8663 ft 279 kts 87°
2026-04-30 04:00 38.63813 -121.16391 9134 ft 280 kts 87°
2026-04-30 04:00 38.63874 -121.13891 9591 ft 282 kts 87°
2026-04-30 04:00 38.63934 -121.11400 10073 ft 282 kts 86°
2026-04-30 04:00 38.63996 -121.08839 10367 ft 296 kts 86°
2026-04-30 04:01 38.64062 -121.06157 10542 ft 312 kts 86°
2026-04-30 04:01 38.64131 -121.03291 10703 ft 327 kts 86°
2026-04-30 04:01 38.64202 -121.00308 10862 ft 343 kts 87°
2026-04-30 04:01 38.64275 -120.97214 11017 ft 357 kts 86°
2026-04-30 04:02 38.64349 -120.93977 11165 ft 371 kts 87°
2026-04-30 04:02 38.64424 -120.90621 11297 ft 385 kts 87°
2026-04-30 04:02 38.64500 -120.87165 11681 ft 390 kts 86°
2026-04-30 04:02 38.64574 -120.83682 12224 ft 392 kts 86°
2026-04-30 04:03 38.64650 -120.80158 12680 ft 397 kts 86°
2026-04-30 04:03 38.64725 -120.76603 13149 ft 402 kts 86°
2026-04-30 04:03 38.64800 -120.73043 13611 ft 406 kts 86°
2026-04-30 04:03 38.64867 -120.69422 14079 ft 411 kts 86°
2026-04-30 04:04 38.64861 -120.65733 14536 ft 416 kts 88°
2026-04-30 04:04 38.64783 -120.61979 15003 ft 422 kts 89°
2026-04-30 04:04 38.64675 -120.58221 15464 ft 427 kts 89°
2026-04-30 04:04 38.64563 -120.54435 15922 ft 431 kts 89°
2026-04-30 04:05 38.64454 -120.50549 16390 ft 435 kts 89°
2026-04-30 04:05 38.64353 -120.46697 16859 ft 439 kts 89°
2026-04-30 04:05 38.64254 -120.42738 17318 ft 443 kts 88°
2026-04-30 04:05 38.64160 -120.38836 17775 ft 446 kts 88°
2026-04-30 04:06 38.64066 -120.34827 18247 ft 449 kts 89°
2026-04-30 04:06 38.63972 -120.30833 18717 ft 452 kts 88°
2026-04-30 04:06 38.63876 -120.26808 19188 ft 455 kts 88°
2026-04-30 04:06 38.63777 -120.22729 19668 ft 458 kts 88°
2026-04-30 04:07 38.63678 -120.18665 20151 ft 460 kts 88°
2026-04-30 04:07 38.63577 -120.14543 20635 ft 463 kts 88°
2026-04-30 04:07 38.63474 -120.10430 21103 ft 465 kts 88°
2026-04-30 04:08 38.63260 -120.02132 22044 ft 469 kts 88°
2026-04-30 04:08 38.63150 -119.97988 22508 ft 470 kts 88°
2026-04-30 04:08 38.63038 -119.93780 22976 ft 471 kts 87°
2026-04-30 04:08 38.62924 -119.89618 23355 ft 474 kts 87°
2026-04-30 04:09 38.62809 -119.85387 23732 ft 477 kts 87°
2026-04-30 04:09 38.62690 -119.81097 24117 ft 480 kts 87°
2026-04-30 04:09 38.62572 -119.76865 24491 ft 483 kts 87°
2026-04-30 04:09 38.62450 -119.72566 24874 ft 486 kts 87°
2026-04-30 04:10 38.62325 -119.68229 25256 ft 488 kts 87°
2026-04-30 04:10 38.62198 -119.63892 25640 ft 490 kts 87°
2026-04-30 04:10 38.62069 -119.59537 26029 ft 492 kts 87°
2026-04-30 04:10 38.61938 -119.55136 26416 ft 493 kts 87°
2026-04-30 04:11 38.61804 -119.50790 26795 ft 491 kts 87°
2026-04-30 04:11 38.61668 -119.46408 27182 ft 491 kts 87°
2026-04-30 04:11 38.61533 -119.42152 27557 ft 491 kts 87°
2026-04-30 04:11 38.61396 -119.37818 27945 ft 490 kts 87°
2026-04-30 04:12 38.61256 -119.33486 28331 ft 489 kts 88°
2026-04-30 04:12 38.61116 -119.29167 28714 ft 489 kts 87°
2026-04-30 04:12 38.60974 -119.24787 29105 ft 488 kts 87°
2026-04-30 04:12 38.60833 -119.20489 29483 ft 488 kts 87°
2026-04-30 04:13 38.60688 -119.16122 29870 ft 487 kts 87°
2026-04-30 04:13 38.60543 -119.11852 30241 ft 486 kts 87°
2026-04-30 04:13 38.60395 -119.07511 30619 ft 484 kts 87°
2026-04-30 04:13 38.60246 -119.03230 30993 ft 483 kts 87°
2026-04-30 04:14 38.60095 -118.98921 31371 ft 482 kts 87°
2026-04-30 04:14 38.59945 -118.94707 31734 ft 480 kts 87°
2026-04-30 04:14 38.59790 -118.90409 32109 ft 478 kts 86°
2026-04-30 04:14 38.59639 -118.86224 32487 ft 476 kts 86°
2026-04-30 04:15 38.59484 -118.82000 32859 ft 474 kts 86°
2026-04-30 04:15 38.59329 -118.77787 33230 ft 471 kts 86°
2026-04-30 04:15 38.59176 -118.73667 33597 ft 467 kts 86°
2026-04-30 04:15 38.59021 -118.69535 34010 ft 463 kts 86°
2026-04-30 04:16 38.58865 -118.65427 34423 ft 459 kts 86°
2026-04-30 04:16 38.58709 -118.61367 34841 ft 454 kts 86°
2026-04-30 04:16 38.58555 -118.57342 35126 ft 451 kts 86°
2026-04-30 04:17 38.58249 -118.49291 35147 ft 457 kts 86°
2026-04-30 04:17 38.57934 -118.41088 35170 ft 464 kts 86°
2026-04-30 04:18 38.57603 -118.32700 35174 ft 471 kts 88°
2026-04-30 04:18 38.57254 -118.24210 35174 ft 478 kts 88°
2026-04-30 04:19 38.56868 -118.15691 35183 ft 483 kts 88°
2026-04-30 04:19 38.56415 -118.07108 35181 ft 483 kts 89°
2026-04-30 04:20 38.55952 -117.98615 35181 ft 482 kts 89°
2026-04-30 04:20 38.55487 -117.90035 35175 ft 483 kts 88°
2026-04-30 04:21 38.55021 -117.81469 35176 ft 483 kts 88°
2026-04-30 04:21 38.54552 -117.72874 35175 ft 485 kts 88°
2026-04-30 04:22 38.54077 -117.64297 35175 ft 484 kts 88°
2026-04-30 04:22 38.53599 -117.55695 35184 ft 486 kts 88°
2026-04-30 04:23 38.53115 -117.47093 35181 ft 487 kts 88°
2026-04-30 04:23 38.52620 -117.38486 35180 ft 486 kts 88°
2026-04-30 04:24 38.52150 -117.29812 35177 ft 487 kts 87°
2026-04-30 04:24 38.52229 -117.21311 35179 ft 480 kts 81°
2026-04-30 04:25 38.52716 -117.12732 35178 ft 483 kts 79°
2026-04-30 04:25 38.53244 -117.04224 35178 ft 483 kts 80°
2026-04-30 04:26 38.53732 -116.95634 35184 ft 486 kts 80°
2026-04-30 04:26 38.54181 -116.87032 35185 ft 485 kts 80°
2026-04-30 04:27 38.54606 -116.78445 35185 ft 484 kts 80°
2026-04-30 04:27 38.55023 -116.69869 35188 ft 487 kts 81°
2026-04-30 04:28 38.55431 -116.61225 35192 ft 488 kts 81°
2026-04-30 04:28 38.55839 -116.52563 35190 ft 488 kts 81°
2026-04-30 04:29 38.56238 -116.43861 35192 ft 490 kts 81°
2026-04-30 04:29 38.56629 -116.35196 35185 ft 492 kts 81°
2026-04-30 04:30 38.57023 -116.26426 35198 ft 492 kts 81°
2026-04-30 04:30 38.57404 -116.17744 35188 ft 491 kts 82°
2026-04-30 04:31 38.57776 -116.09038 35188 ft 493 kts 82°
2026-04-30 04:31 38.58145 -116.00259 35198 ft 493 kts 82°
2026-04-30 04:32 38.58511 -115.91516 35185 ft 497 kts 82°
2026-04-30 04:32 38.58867 -115.82683 35192 ft 495 kts 82°
2026-04-30 04:33 38.59218 -115.73897 35187 ft 497 kts 82°
2026-04-30 04:33 38.59566 -115.65090 35194 ft 498 kts 82°
2026-04-30 04:34 38.59907 -115.56219 35195 ft 498 kts 83°
2026-04-30 04:34 38.60241 -115.47381 35189 ft 500 kts 82°
2026-04-30 04:35 38.60566 -115.38563 35196 ft 499 kts 82°
2026-04-30 04:35 38.60887 -115.29694 35192 ft 498 kts 83°
2026-04-30 04:36 38.61203 -115.20807 35186 ft 500 kts 84°
2026-04-30 04:36 38.61507 -115.11970 35194 ft 499 kts 84°
2026-04-30 04:37 38.61809 -115.03082 35190 ft 501 kts 84°
2026-04-30 04:37 38.62107 -114.94153 35193 ft 503 kts 84°
2026-04-30 04:38 38.62395 -114.85248 35186 ft 500 kts 84°
2026-04-30 04:38 38.62672 -114.76371 35188 ft 501 kts 84°
2026-04-30 04:39 38.62949 -114.67386 35184 ft 506 kts 85°
2026-04-30 04:39 38.63220 -114.58476 35182 ft 502 kts 85°
2026-04-30 04:40 38.63480 -114.49539 35179 ft 503 kts 85°
2026-04-30 04:40 38.63739 -114.40575 35178 ft 506 kts 85°
2026-04-30 04:41 38.63992 -114.31581 35177 ft 506 kts 86°
2026-04-30 04:41 38.64239 -114.22581 35174 ft 507 kts 86°
2026-04-30 04:42 38.64477 -114.13609 35171 ft 508 kts 86°
2026-04-30 04:42 38.64703 -114.04589 35169 ft 505 kts 86°
2026-04-30 04:43 38.64923 -113.95617 35175 ft 509 kts 86°
2026-04-30 04:43 38.65139 -113.86557 35170 ft 510 kts 86°
2026-04-30 04:44 38.65351 -113.77425 35172 ft 510 kts 86°
2026-04-30 04:44 38.65560 -113.68365 35172 ft 511 kts 87°
2026-04-30 04:45 38.65755 -113.59301 35174 ft 513 kts 87°
2026-04-30 04:45 38.65943 -113.50208 35180 ft 511 kts 87°
2026-04-30 04:46 38.66128 -113.41085 35181 ft 510 kts 88°
2026-04-30 04:46 38.66303 -113.32023 35187 ft 514 kts 88°
2026-04-30 04:47 38.66474 -113.22830 35183 ft 514 kts 89°
2026-04-30 04:47 38.66637 -113.13730 35189 ft 514 kts 89°
2026-04-30 04:48 38.66793 -113.04537 35189 ft 517 kts 89°
2026-04-30 04:48 38.66940 -112.95380 35194 ft 515 kts 88°
2026-04-30 04:49 38.67077 -112.86257 35198 ft 514 kts 89°
2026-04-30 04:49 38.67209 -112.77072 35200 ft 518 kts 89°
2026-04-30 04:50 38.67336 -112.67898 35197 ft 516 kts 89°
2026-04-30 04:50 38.67452 -112.58691 35200 ft 518 kts 89°
2026-04-30 04:51 38.67563 -112.49475 35198 ft 518 kts 89°
2026-04-30 04:51 38.67668 -112.40306 35198 ft 519 kts 89°
2026-04-30 04:52 38.67764 -112.31013 35200 ft 519 kts 90°
2026-04-30 04:52 38.67852 -112.21790 35205 ft 522 kts 90°
2026-04-30 04:53 38.67932 -112.12521 35205 ft 522 kts 90°
2026-04-30 04:53 38.68007 -112.03265 35207 ft 521 kts 90°
2026-04-30 04:54 38.68075 -111.93959 35206 ft 524 kts 90°
2026-04-30 04:54 38.68131 -111.84613 35204 ft 523 kts 90°
2026-04-30 04:55 38.68185 -111.75343 35194 ft 526 kts 90°
2026-04-30 04:55 38.68237 -111.65967 35193 ft 524 kts 90°
2026-04-30 04:56 38.68283 -111.56639 35191 ft 522 kts 91°
2026-04-30 04:56 38.68311 -111.47345 35184 ft 527 kts 91°
2026-04-30 04:57 38.68337 -111.37990 35181 ft 526 kts 91°
2026-04-30 04:57 38.68353 -111.28615 35173 ft 527 kts 91°
2026-04-30 04:58 38.68359 -111.19222 35177 ft 530 kts 91°
2026-04-30 04:58 38.68357 -111.09763 35170 ft 528 kts 91°
2026-04-30 04:59 38.68352 -111.00363 35100 ft 527 kts 91°
2026-04-30 04:59 38.68348 -110.90995 35345 ft 535 kts 91°
2026-04-30 05:00 38.68324 -110.81511 35168 ft 531 kts 91°
2026-04-30 05:00 38.68298 -110.72086 35162 ft 529 kts 91°
2026-04-30 05:01 38.68262 -110.62622 35157 ft 533 kts 92°
2026-04-30 05:01 38.68216 -110.53175 35164 ft 532 kts 91°
2026-04-30 05:02 38.68170 -110.43731 35147 ft 530 kts 91°
2026-04-30 05:02 38.68116 -110.34248 35144 ft 533 kts 92°
2026-04-30 05:03 38.68044 -110.24764 35138 ft 530 kts 93°
2026-04-30 05:03 38.67968 -110.15346 35132 ft 534 kts 93°
2026-04-30 05:04 38.67885 -110.05849 35133 ft 534 kts 92°
2026-04-30 05:04 38.67944 -109.96349 35120 ft 534 kts 89°
2026-04-30 05:05 38.68854 -109.86902 35116 ft 538 kts 80°
2026-04-30 05:05 38.70396 -109.77525 35112 ft 537 kts 77°
2026-04-30 05:06 38.72998 -109.63525 35116 ft 540 kts 76°
2026-04-30 05:06 38.74683 -109.54148 35133 ft 540 kts 77°
2026-04-30 05:07 38.76313 -109.44762 35150 ft 539 kts 77°
2026-04-30 05:07 38.77917 -109.35361 35154 ft 541 kts 78°
2026-04-30 05:08 38.79504 -109.25952 35152 ft 540 kts 78°
2026-04-30 05:08 38.81085 -109.16534 35159 ft 542 kts 78°
2026-04-30 05:09 38.81872 -109.11828 35019 ft 538 kts 78°
2026-04-30 05:09 38.82661 -109.07104 35157 ft 538 kts 78°
2026-04-30 05:09 38.84226 -108.97691 35157 ft 543 kts 78°
2026-04-30 05:10 38.85799 -108.88194 35174 ft 543 kts 78°
2026-04-30 05:10 38.87362 -108.78708 35170 ft 545 kts 77°
2026-04-30 05:11 38.88927 -108.69178 35172 ft 542 kts 78°
2026-04-30 05:11 38.90470 -108.59686 35184 ft 544 kts 78°
2026-04-30 05:12 38.92005 -108.50221 35199 ft 546 kts 78°
2026-04-30 05:12 38.93542 -108.40680 35209 ft 543 kts 77°
2026-04-30 05:13 38.95078 -108.31134 35230 ft 546 kts 79°
2026-04-30 05:13 38.96598 -108.21595 35212 ft 546 kts 78°
2026-04-30 05:14 38.98116 -108.12058 35224 ft 545 kts 79°
2026-04-30 05:14 38.99630 -108.02524 35238 ft 546 kts 77°
2026-04-30 05:15 39.01602 -107.93092 35243 ft 547 kts 71°
2026-04-30 05:15 39.04043 -107.83867 35241 ft 543 kts 69°
2026-04-30 05:16 39.06586 -107.74695 35240 ft 545 kts 68°
2026-04-30 05:16 39.09084 -107.65492 35255 ft 547 kts 69°
2026-04-30 05:17 39.11531 -107.56228 35273 ft 543 kts 69°
2026-04-30 05:17 39.13937 -107.47000 35242 ft 542 kts 70°
2026-04-30 05:18 39.16357 -107.37674 35283 ft 548 kts 69°
2026-04-30 05:18 39.18748 -107.28441 35255 ft 542 kts 71°
2026-04-30 05:19 39.21131 -107.19183 35246 ft 546 kts 71°
2026-04-30 05:19 39.23510 -107.09880 35260 ft 543 kts 71°
2026-04-30 05:20 39.25863 -107.00645 35283 ft 545 kts 71°
2026-04-30 05:20 39.28227 -106.91344 35228 ft 545 kts 70°
2026-04-30 05:21 39.30605 -106.82048 35237 ft 543 kts 70°
2026-04-30 05:21 39.33021 -106.72795 35249 ft 542 kts 70°
2026-04-30 05:22 39.35431 -106.63541 35219 ft 545 kts 70°
2026-04-30 05:22 39.37821 -106.54307 35215 ft 540 kts 69°
2026-04-30 05:23 39.40198 -106.45085 35208 ft 543 kts 69°
2026-04-30 05:23 39.42584 -106.35786 35201 ft 541 kts 69°
2026-04-30 05:24 39.44931 -106.26530 35210 ft 542 kts 70°
2026-04-30 05:24 39.47276 -106.17278 35205 ft 544 kts 70°
2026-04-30 05:25 39.49626 -106.08019 35190 ft 540 kts 70°
2026-04-30 05:25 39.51967 -105.98776 35197 ft 544 kts 70°
2026-04-30 05:26 39.54314 -105.89460 35184 ft 543 kts 70°
2026-04-30 05:26 39.56644 -105.80161 35188 ft 540 kts 70°
2026-04-30 05:27 39.58950 -105.70915 35183 ft 541 kts 70°
2026-04-30 05:27 39.61256 -105.61628 35184 ft 538 kts 71°
2026-04-30 05:28 39.63547 -105.52387 35202 ft 540 kts 70°
2026-04-30 05:28 39.65843 -105.43088 35198 ft 539 kts 70°
2026-04-30 05:29 39.68123 -105.33817 35209 ft 540 kts 70°
2026-04-30 05:29 39.70387 -105.24574 35207 ft 539 kts 70°
2026-04-30 05:30 39.72655 -105.15269 35227 ft 540 kts 71°
2026-04-30 05:30 39.74894 -105.06019 35191 ft 537 kts 71°
2026-04-30 05:31 39.77150 -104.96703 35197 ft 541 kts 71°
2026-04-30 05:31 39.78270 -104.92057 35386 ft 540 kts 71°
2026-04-30 05:31 39.79386 -104.87408 35176 ft 537 kts 71°
2026-04-30 05:32 39.81618 -104.78109 35194 ft 537 kts 71°
2026-04-30 05:32 39.82727 -104.73481 35373 ft 539 kts 71°
2026-04-30 05:32 39.83838 -104.68839 35303 ft 538 kts 70°
2026-04-30 05:33 39.84947 -104.64191 35200 ft 534 kts 71°
2026-04-30 05:33 39.86042 -104.59583 35194 ft 531 kts 70°
2026-04-30 05:33 39.87132 -104.54998 35065 ft 532 kts 71°
2026-04-30 05:33 39.88221 -104.50393 35327 ft 534 kts 70°
2026-04-30 05:34 39.89315 -104.45772 35201 ft 533 kts 71°
2026-04-30 05:34 39.90410 -104.41133 35202 ft 532 kts 70°
2026-04-30 05:34 39.92577 -104.31928 35191 ft 534 kts 71°
2026-04-30 05:35 39.94744 -104.22670 35173 ft 533 kts 71°
2026-04-30 05:35 39.96892 -104.13424 35182 ft 533 kts 71°
2026-04-30 05:36 39.99032 -104.04206 35173 ft 532 kts 71°
2026-04-30 05:36 40.01094 -103.94971 35165 ft 533 kts 74°
2026-04-30 05:37 40.02788 -103.85541 35169 ft 533 kts 76°
2026-04-30 05:37 40.04328 -103.76078 35165 ft 533 kts 76°
2026-04-30 05:38 40.05880 -103.66559 35169 ft 533 kts 76°
2026-04-30 05:38 40.07460 -103.57127 35161 ft 533 kts 76°
2026-04-30 05:39 40.09071 -103.47633 35168 ft 533 kts 75°
2026-04-30 05:39 40.10668 -103.38220 35166 ft 531 kts 75°
2026-04-30 05:40 40.12271 -103.28744 35162 ft 535 kts 76°
2026-04-30 05:40 40.13880 -103.19221 35162 ft 534 kts 76°
2026-04-30 05:41 40.15461 -103.09792 35165 ft 532 kts 76°
2026-04-30 05:41 40.17041 -103.00320 35160 ft 536 kts 76°
2026-04-30 05:42 40.18622 -102.90769 35153 ft 535 kts 76°
2026-04-30 05:42 40.20166 -102.81347 35139 ft 530 kts 76°
2026-04-30 05:43 40.21708 -102.71910 35149 ft 533 kts 75°
2026-04-30 05:43 40.23256 -102.62415 35144 ft 533 kts 76°
2026-04-30 05:44 40.24783 -102.52981 35137 ft 532 kts 75°
2026-04-30 05:44 40.26315 -102.43466 35133 ft 533 kts 76°
2026-04-30 05:45 40.27839 -102.33944 35133 ft 533 kts 76°
2026-04-30 05:45 40.29345 -102.24489 35134 ft 532 kts 76°
2026-04-30 05:46 40.30851 -102.14980 35130 ft 532 kts 76°
2026-04-30 05:46 40.32344 -102.05501 35119 ft 532 kts 76°
2026-04-30 05:47 40.33829 -101.96033 35117 ft 531 kts 76°
2026-04-30 05:47 40.35299 -101.86586 35115 ft 530 kts 76°
2026-04-30 05:48 40.36773 -101.77058 35117 ft 532 kts 76°
2026-04-30 05:48 40.38240 -101.67539 35125 ft 532 kts 76°
2026-04-30 05:49 40.39693 -101.58060 35124 ft 531 kts 76°
2026-04-30 05:49 40.41144 -101.48547 35130 ft 531 kts 76°
2026-04-30 05:50 40.42578 -101.39080 35122 ft 529 kts 76°
2026-04-30 05:50 40.44005 -101.29590 35121 ft 530 kts 77°
2026-04-30 05:51 40.45421 -101.20124 35124 ft 530 kts 77°
2026-04-30 05:51 40.46830 -101.10661 35120 ft 530 kts 77°
2026-04-30 05:52 40.48238 -101.01132 35126 ft 529 kts 77°
2026-04-30 05:52 40.49636 -100.91623 35125 ft 530 kts 77°
2026-04-30 05:53 40.51020 -100.82145 35122 ft 528 kts 77°
2026-04-30 05:53 40.52392 -100.72698 35126 ft 529 kts 77°
2026-04-30 05:54 40.53764 -100.63191 35118 ft 527 kts 77°
2026-04-30 05:54 40.55126 -100.53697 35118 ft 528 kts 77°
2026-04-30 05:55 40.56479 -100.44222 35120 ft 527 kts 77°
2026-04-30 05:55 40.57824 -100.34741 35115 ft 528 kts 77°
2026-04-30 05:56 40.59317 -100.25294 35121 ft 526 kts 73°
2026-04-30 05:56 40.61114 -100.16012 35121 ft 526 kts 72°
2026-04-30 05:57 40.62985 -100.06663 35121 ft 524 kts 72°
2026-04-30 05:57 40.64807 -99.97321 35125 ft 525 kts 73°
2026-04-30 05:58 40.66569 -99.88064 35123 ft 524 kts 73°
2026-04-30 05:58 40.68328 -99.78667 35123 ft 525 kts 73°
2026-04-30 05:59 40.70055 -99.69353 35120 ft 524 kts 73°
2026-04-30 05:59 40.71774 -99.60018 35124 ft 523 kts 73°
2026-04-30 06:00 40.73473 -99.50757 35120 ft 522 kts 73°
2026-04-30 06:00 40.75184 -99.41412 35114 ft 524 kts 73°
2026-04-30 06:01 40.76883 -99.32066 35109 ft 523 kts 74°
2026-04-30 06:01 40.78575 -99.22709 35117 ft 524 kts 74°
2026-04-30 06:02 40.80252 -99.13412 35124 ft 522 kts 74°
2026-04-30 06:02 40.81921 -99.04099 35130 ft 524 kts 74°
2026-04-30 06:03 40.83592 -98.94725 35135 ft 524 kts 74°
2026-04-30 06:03 40.85258 -98.85339 35125 ft 522 kts 74°
2026-04-30 06:04 40.86902 -98.76025 35125 ft 524 kts 74°
2026-04-30 06:05 40.89365 -98.61980 35116 ft 521 kts 74°
2026-04-30 06:05 40.90991 -98.52647 35121 ft 522 kts 74°
2026-04-30 06:06 40.92614 -98.43289 35054 ft 519 kts 74°
2026-04-30 06:06 40.94226 -98.33942 35121 ft 524 kts 75°
2026-04-30 06:07 40.95839 -98.24550 35120 ft 522 kts 75°
2026-04-30 06:07 40.97434 -98.15205 35119 ft 522 kts 75°
2026-04-30 06:08 40.99026 -98.05829 35109 ft 519 kts 75°
2026-04-30 06:08 41.00790 -97.96601 35103 ft 517 kts 70°
2026-04-30 06:09 41.03027 -97.87604 35100 ft 517 kts 67°
2026-04-30 06:09 41.05438 -97.78617 35101 ft 516 kts 66°
2026-04-30 06:10 41.07823 -97.69682 35098 ft 516 kts 66°
2026-04-30 06:10 41.10171 -97.60695 35094 ft 516 kts 67°
2026-04-30 06:11 41.12488 -97.51687 35095 ft 516 kts 67°
2026-04-30 06:11 41.14791 -97.42647 35098 ft 516 kts 67°
2026-04-30 06:12 41.17068 -97.33679 35094 ft 516 kts 68°
2026-04-30 06:12 41.19361 -97.24620 35093 ft 518 kts 68°
2026-04-30 06:13 41.21652 -97.15537 35095 ft 517 kts 68°
2026-04-30 06:13 41.23926 -97.06472 35096 ft 517 kts 68°
2026-04-30 06:14 41.26176 -96.97473 35094 ft 516 kts 68°
2026-04-30 06:14 41.28435 -96.88406 35099 ft 516 kts 68°
2026-04-30 06:15 41.30685 -96.79340 35107 ft 517 kts 67°
2026-04-30 06:15 41.32932 -96.70255 35110 ft 517 kts 68°
2026-04-30 06:16 41.35171 -96.61167 35117 ft 516 kts 68°
2026-04-30 06:16 41.37402 -96.52079 35027 ft 518 kts 67°
2026-04-30 06:16 41.38520 -96.47510 35197 ft 515 kts 67°
2026-04-30 06:17 41.39634 -96.42955 35160 ft 514 kts 67°
2026-04-30 06:17 41.41841 -96.33898 35116 ft 514 kts 68°
2026-04-30 06:18 41.44038 -96.24836 35115 ft 515 kts 68°
2026-04-30 06:18 41.46254 -96.15668 35116 ft 517 kts 68°
2026-04-30 06:19 41.48444 -96.06565 35117 ft 516 kts 68°
2026-04-30 06:19 41.50545 -95.97416 35119 ft 518 kts 71°
2026-04-30 06:20 41.52145 -95.88026 35118 ft 519 kts 75°
2026-04-30 06:20 41.53532 -95.78569 35115 ft 521 kts 75°
2026-04-30 06:21 41.54906 -95.69140 35107 ft 519 kts 75°
2026-04-30 06:21 41.56319 -95.59677 35106 ft 520 kts 74°
2026-04-30 06:22 41.57756 -95.50225 35095 ft 521 kts 74°
2026-04-30 06:22 41.59204 -95.40732 35095 ft 520 kts 74°
2026-04-30 06:23 41.60640 -95.31279 35103 ft 519 kts 75°
2026-04-30 06:23 41.62072 -95.21819 35099 ft 520 kts 75°
2026-04-30 06:24 41.63488 -95.12378 35106 ft 519 kts 75°
2026-04-30 06:24 41.64903 -95.02891 35104 ft 519 kts 75°
2026-04-30 06:25 41.66305 -94.93443 35104 ft 520 kts 75°
2026-04-30 06:25 41.67699 -94.83984 35103 ft 518 kts 75°
2026-04-30 06:26 41.69093 -94.74484 35106 ft 520 kts 75°
2026-04-30 06:26 41.70470 -94.65044 35110 ft 518 kts 75°
2026-04-30 06:27 41.71840 -94.55586 35103 ft 519 kts 75°
2026-04-30 06:27 41.73208 -94.46081 35107 ft 517 kts 75°
2026-04-30 06:28 41.74557 -94.36660 35110 ft 517 kts 75°
2026-04-30 06:28 41.75897 -94.27239 35105 ft 517 kts 76°
2026-04-30 06:29 41.77243 -94.17724 35096 ft 518 kts 76°
2026-04-30 06:29 41.78567 -94.08285 35106 ft 517 kts 76°
2026-04-30 06:30 41.79882 -93.98843 35106 ft 516 kts 76°
2026-04-30 06:30 41.81199 -93.89358 35110 ft 516 kts 76°
2026-04-30 06:31 41.82502 -93.79900 35113 ft 517 kts 75°
2026-04-30 06:31 41.83791 -93.70470 35106 ft 515 kts 76°
2026-04-30 06:32 41.85074 -93.61029 35107 ft 516 kts 76°
2026-04-30 06:32 41.86357 -93.51548 35106 ft 517 kts 76°
2026-04-30 06:33 41.87629 -93.42082 35108 ft 516 kts 76°
2026-04-30 06:33 41.88899 -93.32561 35108 ft 517 kts 76°
2026-04-30 06:34 41.90159 -93.23077 35105 ft 517 kts 76°
2026-04-30 06:34 41.91423 -93.13599 35101 ft 516 kts 75°
2026-04-30 06:35 41.93017 -93.04256 35098 ft 514 kts 71°
2026-04-30 06:35 41.94910 -92.94970 35098 ft 513 kts 70°
2026-04-30 06:36 41.96835 -92.85767 35100 ft 513 kts 70°
2026-04-30 06:36 41.98734 -92.76511 35101 ft 513 kts 70°
2026-04-30 06:37 42.00584 -92.67299 35104 ft 513 kts 70°
2026-04-30 06:37 42.02424 -92.58006 35095 ft 513 kts 71°
2026-04-30 06:38 42.04238 -92.48780 35090 ft 511 kts 71°
2026-04-30 06:38 42.06041 -92.39559 35092 ft 512 kts 71°
2026-04-30 06:39 42.07848 -92.30284 35090 ft 513 kts 71°
2026-04-30 06:39 42.09649 -92.20989 35095 ft 512 kts 71°
2026-04-30 06:40 42.11435 -92.11744 35087 ft 512 kts 71°
2026-04-30 06:40 42.13222 -92.02440 35093 ft 512 kts 71°
2026-04-30 06:41 42.14992 -91.93181 35093 ft 511 kts 71°
2026-04-30 06:41 42.16758 -91.83895 35092 ft 511 kts 71°
2026-04-30 06:42 42.18508 -91.74642 35092 ft 510 kts 71°
2026-04-30 06:42 42.20239 -91.65451 35090 ft 509 kts 71°
2026-04-30 06:43 42.21993 -91.56122 35086 ft 512 kts 71°
2026-04-30 06:43 42.23727 -91.46835 35088 ft 510 kts 71°
2026-04-30 06:44 42.25440 -91.37603 35088 ft 510 kts 71°
2026-04-30 06:44 42.27158 -91.28308 35088 ft 511 kts 72°
2026-04-30 06:45 42.28872 -91.18982 35091 ft 510 kts 72°
2026-04-30 06:45 42.30563 -91.09732 35085 ft 510 kts 72°
2026-04-30 06:46 42.32270 -91.00369 35088 ft 512 kts 72°
2026-04-30 06:46 42.33958 -90.91055 35088 ft 511 kts 72°
2026-04-30 06:47 42.35635 -90.81752 35096 ft 511 kts 72°
2026-04-30 06:47 42.37307 -90.72425 35093 ft 511 kts 72°
2026-04-30 06:48 42.38977 -90.63069 35093 ft 511 kts 72°
2026-04-30 06:48 42.40631 -90.53757 35091 ft 510 kts 72°
2026-04-30 06:49 42.42280 -90.44419 35091 ft 509 kts 72°
2026-04-30 06:49 42.43921 -90.35090 35083 ft 509 kts 72°
2026-04-30 06:50 42.45547 -90.25791 35087 ft 511 kts 73°
2026-04-30 06:50 42.47176 -90.16423 35086 ft 510 kts 73°
2026-04-30 06:51 42.48796 -90.07060 35084 ft 509 kts 73°
2026-04-30 06:51 42.50416 -89.97755 35088 ft 509 kts 72°
2026-04-30 06:52 42.52348 -89.88545 35079 ft 507 kts 68°
2026-04-30 06:52 42.54458 -89.79456 35082 ft 506 kts 68°
2026-04-30 06:53 42.56563 -89.70358 35085 ft 507 kts 68°
2026-04-30 06:53 42.58615 -89.61269 35082 ft 506 kts 69°
2026-04-30 06:54 42.60637 -89.52142 35086 ft 504 kts 69°
2026-04-30 06:54 42.62646 -89.42977 35082 ft 505 kts 69°
2026-04-30 06:55 42.64635 -89.33848 35075 ft 504 kts 70°
2026-04-30 06:55 42.66604 -89.24779 35076 ft 504 kts 70°
2026-04-30 06:56 42.68584 -89.15619 35069 ft 505 kts 70°
2026-04-30 06:56 42.70557 -89.06453 35071 ft 505 kts 70°
2026-04-30 06:57 42.72516 -88.97308 35069 ft 505 kts 70°
2026-04-30 06:57 42.74472 -88.88136 35065 ft 504 kts 70°
2026-04-30 06:58 42.76411 -88.79012 35063 ft 504 kts 70°
2026-04-30 06:58 42.78352 -88.69843 35058 ft 504 kts 70°
2026-04-30 06:59 42.80278 -88.60703 35058 ft 506 kts 70°
2026-04-30 06:59 42.82214 -88.51478 35053 ft 505 kts 70°
2026-04-30 07:00 42.84135 -88.42277 35051 ft 506 kts 70°
2026-04-30 07:00 42.86048 -88.33064 35058 ft 505 kts 71°
2026-04-30 07:01 42.87954 -88.23843 35061 ft 505 kts 71°
2026-04-30 07:01 42.89846 -88.14658 35061 ft 505 kts 71°
2026-04-30 07:02 42.91734 -88.05460 35061 ft 505 kts 71°
2026-04-30 07:02 42.93629 -87.96175 35062 ft 505 kts 71°
2026-04-30 07:03 42.95497 -87.86975 35059 ft 504 kts 71°
2026-04-30 07:03 42.97410 -87.77791 35057 ft 503 kts 69°
2026-04-30 07:04 42.99815 -87.68865 35049 ft 500 kts 64°
2026-04-30 07:04 43.02512 -87.60119 35042 ft 500 kts 63°
2026-04-30 07:05 43.06612 -87.47029 35034 ft 500 kts 63°
2026-04-30 07:05 43.09306 -87.38255 35033 ft 500 kts 63°
2026-04-30 07:06 43.11977 -87.29448 35040 ft 500 kts 64°
2026-04-30 07:06 43.14631 -87.20631 35035 ft 500 kts 64°
2026-04-30 07:07 43.17281 -87.11791 35034 ft 501 kts 65°
2026-04-30 07:07 43.19915 -87.02976 35029 ft 501 kts 65°
2026-04-30 07:08 43.22543 -86.94150 35034 ft 500 kts 65°
2026-04-30 07:08 43.25147 -86.85372 35025 ft 500 kts 65°
2026-04-30 07:09 43.27762 -86.76527 35020 ft 500 kts 65°
2026-04-30 07:09 43.30379 -86.67648 35019 ft 500 kts 65°
2026-04-30 07:10 43.32973 -86.58813 35029 ft 499 kts 65°
2026-04-30 07:10 43.35560 -86.49978 35020 ft 500 kts 65°
2026-04-30 07:11 43.38142 -86.41124 35026 ft 500 kts 65°
2026-04-30 07:11 43.40716 -86.32270 35024 ft 500 kts 66°
2026-04-30 07:12 43.43303 -86.23341 35037 ft 502 kts 66°
2026-04-30 07:12 43.45879 -86.14414 35029 ft 501 kts 66°
2026-04-30 07:13 43.48441 -86.05508 35028 ft 501 kts 66°
2026-04-30 07:13 43.50937 -85.96618 35026 ft 501 kts 68°
2026-04-30 07:14 43.53039 -85.87444 35022 ft 501 kts 72°
2026-04-30 07:14 43.54946 -85.78197 35017 ft 502 kts 72°
2026-04-30 07:15 43.56852 -85.68959 35005 ft 501 kts 72°
2026-04-30 07:15 43.58796 -85.59722 35007 ft 501 kts 71°
2026-04-30 07:16 43.60748 -85.50557 34997 ft 502 kts 71°
2026-04-30 07:16 43.62717 -85.41336 35000 ft 501 kts 71°
2026-04-30 07:17 43.64674 -85.32144 34988 ft 500 kts 72°
2026-04-30 07:18 43.67619 -85.18250 34989 ft 501 kts 72°
2026-04-30 07:18 43.69559 -85.09041 34994 ft 500 kts 72°
2026-04-30 07:19 43.71501 -84.99779 34994 ft 499 kts 72°
2026-04-30 07:19 43.73426 -84.90562 34991 ft 500 kts 72°
2026-04-30 07:20 43.75344 -84.81336 34997 ft 499 kts 72°
2026-04-30 07:20 43.77245 -84.72149 35006 ft 499 kts 72°
2026-04-30 07:21 43.79159 -84.62865 34995 ft 501 kts 72°
2026-04-30 07:21 43.81060 -84.53597 34995 ft 501 kts 72°
2026-04-30 07:22 43.83892 -84.39706 34994 ft 501 kts 73°
2026-04-30 07:22 43.85767 -84.30450 34992 ft 500 kts 73°
2026-04-30 07:23 43.87640 -84.21165 34995 ft 501 kts 73°
2026-04-30 07:23 43.89504 -84.11884 34989 ft 501 kts 73°
2026-04-30 07:24 43.91356 -84.02625 34988 ft 499 kts 73°
2026-04-30 07:24 43.93201 -83.93353 34982 ft 500 kts 73°
2026-04-30 07:25 43.95038 -83.84075 34985 ft 499 kts 74°
2026-04-30 07:25 43.96879 -83.74738 34986 ft 500 kts 74°
2026-04-30 07:26 43.98700 -83.65466 34982 ft 500 kts 74°
2026-04-30 07:26 44.00523 -83.56130 34980 ft 500 kts 74°
2026-04-30 07:27 44.02332 -83.46816 34977 ft 500 kts 74°
2026-04-30 07:27 44.04126 -83.37541 34975 ft 499 kts 74°
2026-04-30 07:28 44.05922 -83.28208 34976 ft 498 kts 75°
2026-04-30 07:28 44.07702 -83.18916 34980 ft 497 kts 75°
2026-04-30 07:29 44.09473 -83.09632 34965 ft 497 kts 75°
2026-04-30 07:29 44.11240 -83.00325 34966 ft 496 kts 75°
2026-04-30 07:30 44.13873 -82.86352 34962 ft 498 kts 75°
2026-04-30 07:31 44.15616 -82.77049 34957 ft 497 kts 75°
2026-04-30 07:31 44.17346 -82.67771 34960 ft 496 kts 75°
2026-04-30 07:32 44.19080 -82.58430 34953 ft 497 kts 75°
2026-04-30 07:32 44.20797 -82.49130 34953 ft 496 kts 75°
2026-04-30 07:33 44.22510 -82.39806 34952 ft 495 kts 75°
2026-04-30 07:33 44.24033 -82.30486 34941 ft 495 kts 83°
2026-04-30 07:33 44.24243 -82.25692 34939 ft 492 kts 95°
2026-04-30 07:34 44.23817 -82.20946 34936 ft 491 kts 103°
2026-04-30 07:34 44.22229 -82.11729 34933 ft 489 kts 108°
2026-04-30 07:35 44.20405 -82.02611 34926 ft 489 kts 108°
2026-04-30 07:35 44.18567 -81.93501 34925 ft 488 kts 108°
2026-04-30 07:36 44.16771 -81.84445 34931 ft 487 kts 108°
2026-04-30 07:36 44.14980 -81.75310 34927 ft 489 kts 107°
2026-04-30 07:37 44.13211 -81.66250 34936 ft 488 kts 107°
2026-04-30 07:37 44.11435 -81.57154 34925 ft 487 kts 107°
2026-04-30 07:38 44.09649 -81.48042 34926 ft 486 kts 107°
2026-04-30 07:38 44.07868 -81.39002 34919 ft 487 kts 108°
2026-04-30 07:39 44.06057 -81.29861 34919 ft 487 kts 108°
2026-04-30 07:39 44.04248 -81.20766 34902 ft 486 kts 108°
2026-04-30 07:40 44.02441 -81.11726 34907 ft 486 kts 108°
2026-04-30 07:40 44.00622 -81.02668 34896 ft 485 kts 108°
2026-04-30 07:41 43.98802 -80.93645 34896 ft 486 kts 108°
2026-04-30 07:41 43.96972 -80.84619 34886 ft 486 kts 108°
2026-04-30 07:42 43.95135 -80.75589 34884 ft 485 kts 108°
2026-04-30 07:42 43.93290 -80.66563 34883 ft 484 kts 108°
2026-04-30 07:43 43.91461 -80.57658 34885 ft 483 kts 108°
2026-04-30 07:43 43.89605 -80.48670 34875 ft 485 kts 108°
2026-04-30 07:44 43.87744 -80.39685 34873 ft 483 kts 108°
2026-04-30 07:44 43.85876 -80.30709 34884 ft 484 kts 109°
2026-04-30 07:45 43.84003 -80.21746 34886 ft 483 kts 109°
2026-04-30 07:45 43.82131 -80.12818 34885 ft 483 kts 109°
2026-04-30 07:46 43.80249 -80.03893 34890 ft 483 kts 109°
2026-04-30 07:46 43.78351 -79.94947 34887 ft 482 kts 109°
2026-04-30 07:47 43.76448 -79.86052 34890 ft 482 kts 109°
2026-04-30 07:47 43.74523 -79.77103 34889 ft 482 kts 109°
2026-04-30 07:48 43.72608 -79.68233 34896 ft 483 kts 109°
2026-04-30 07:48 43.70680 -79.59329 34888 ft 482 kts 110°
2026-04-30 07:49 43.68741 -79.50417 34884 ft 482 kts 110°
2026-04-30 07:49 43.66809 -79.41573 34883 ft 483 kts 109°
2026-04-30 07:50 43.64838 -79.32687 34878 ft 481 kts 112°
2026-04-30 07:50 43.62551 -79.24030 34882 ft 480 kts 115°
2026-04-30 07:51 43.60080 -79.15481 34877 ft 480 kts 115°
2026-04-30 07:51 43.57592 -79.06912 34881 ft 480 kts 115°
2026-04-30 07:52 43.55124 -78.98311 34875 ft 480 kts 115°
2026-04-30 07:52 43.52697 -78.89791 34871 ft 479 kts 115°
2026-04-30 07:53 43.50258 -78.81228 34866 ft 480 kts 115°
2026-04-30 07:53 43.47808 -78.72640 34867 ft 481 kts 115°
2026-04-30 07:54 43.45364 -78.64081 34862 ft 481 kts 115°
2026-04-30 07:54 43.42912 -78.55512 34859 ft 481 kts 115°
2026-04-30 07:55 43.40459 -78.46970 34860 ft 480 kts 115°
2026-04-30 07:55 43.38005 -78.38451 34855 ft 479 kts 115°
2026-04-30 07:56 43.35529 -78.29893 34854 ft 479 kts 116°
2026-04-30 07:56 43.33063 -78.21400 34859 ft 479 kts 116°
2026-04-30 07:57 43.30550 -78.12921 34864 ft 478 kts 118°
2026-04-30 07:57 43.27517 -78.04771 34862 ft 474 kts 124°
2026-04-30 07:58 43.24215 -77.96998 34857 ft 475 kts 125°
2026-04-30 07:58 43.20849 -77.89198 34852 ft 474 kts 125°
2026-04-30 07:59 43.17497 -77.81359 34849 ft 475 kts 125°
2026-04-30 07:59 43.14201 -77.73586 34853 ft 474 kts 124°
2026-04-30 08:00 43.09233 -77.61829 34851 ft 475 kts 124°
2026-04-30 08:00 43.05928 -77.54021 34851 ft 475 kts 124°
2026-04-30 08:01 43.02589 -77.46150 34848 ft 476 kts 124°
2026-04-30 08:01 42.99257 -77.38319 34843 ft 477 kts 124°
2026-04-30 08:02 42.94244 -77.26564 34831 ft 475 kts 125°
2026-04-30 08:03 42.87526 -77.10926 34449 ft 479 kts 126°
2026-04-30 08:03 42.85805 -77.06999 34127 ft 474 kts 126°
2026-04-30 08:04 42.84109 -77.03148 33824 ft 471 kts 126°
2026-04-30 08:04 42.82419 -76.99324 33523 ft 470 kts 126°
2026-04-30 08:04 42.80733 -76.95519 33222 ft 471 kts 126°
2026-04-30 08:04 42.79038 -76.91700 32929 ft 471 kts 126°
2026-04-30 08:05 42.77345 -76.87885 32831 ft 468 kts 126°
2026-04-30 08:05 42.73956 -76.80263 32829 ft 475 kts 126°
2026-04-30 08:06 42.70546 -76.72604 32821 ft 473 kts 126°
2026-04-30 08:06 42.67118 -76.64912 32810 ft 473 kts 126°
2026-04-30 08:07 42.63716 -76.57301 32808 ft 475 kts 126°
2026-04-30 08:07 42.60286 -76.49646 32809 ft 474 kts 126°
2026-04-30 08:08 42.56840 -76.41976 32816 ft 474 kts 126°
2026-04-30 08:08 42.53405 -76.34345 32809 ft 474 kts 127°
2026-04-30 08:09 42.49958 -76.26709 32797 ft 473 kts 127°
2026-04-30 08:09 42.48257 -76.22953 32576 ft 474 kts 127°
2026-04-30 08:09 42.46518 -76.19114 32333 ft 472 kts 127°
2026-04-30 08:09 42.44814 -76.15352 32095 ft 469 kts 127°
2026-04-30 08:10 42.43094 -76.11561 31813 ft 471 kts 127°
2026-04-30 08:10 42.41386 -76.07804 31361 ft 472 kts 127°
2026-04-30 08:10 42.39670 -76.04034 30900 ft 470 kts 127°
2026-04-30 08:10 42.37951 -76.00261 30426 ft 467 kts 127°
2026-04-30 08:11 42.36251 -75.96532 29930 ft 466 kts 127°
2026-04-30 08:11 42.34551 -75.92811 29428 ft 468 kts 127°
2026-04-30 08:11 42.32861 -75.89117 28931 ft 465 kts 126°
2026-04-30 08:11 42.31167 -75.85413 28428 ft 462 kts 126°
2026-04-30 08:12 42.29464 -75.81696 27922 ft 459 kts 126°
2026-04-30 08:12 42.27804 -75.78078 27434 ft 456 kts 127°
2026-04-30 08:12 42.26140 -75.74455 26958 ft 453 kts 126°
2026-04-30 08:12 42.24482 -75.70855 26482 ft 451 kts 127°
2026-04-30 08:13 42.22830 -75.67271 26009 ft 449 kts 127°
2026-04-30 08:13 42.21191 -75.63719 25540 ft 447 kts 127°
2026-04-30 08:13 42.19549 -75.60168 25063 ft 445 kts 127°
2026-04-30 08:13 42.17916 -75.56640 24596 ft 442 kts 127°
2026-04-30 08:14 42.16284 -75.53114 24121 ft 439 kts 127°
2026-04-30 08:14 42.14679 -75.49654 23662 ft 438 kts 127°
2026-04-30 08:14 42.13071 -75.46189 23194 ft 435 kts 127°
2026-04-30 08:14 42.11459 -75.42719 22727 ft 431 kts 127°
2026-04-30 08:15 42.09883 -75.39332 22285 ft 428 kts 127°
2026-04-30 08:15 42.08306 -75.35947 21849 ft 427 kts 127°
2026-04-30 08:15 42.06712 -75.32527 21412 ft 425 kts 127°
2026-04-30 08:15 42.05225 -75.29117 20982 ft 424 kts 124°
2026-04-30 08:16 42.03862 -75.25647 20553 ft 421 kts 122°
2026-04-30 08:16 42.02556 -75.22135 20127 ft 419 kts 121°
2026-04-30 08:16 42.01270 -75.18610 19694 ft 416 kts 121°
2026-04-30 08:16 41.99996 -75.15121 19263 ft 414 kts 121°
2026-04-30 08:17 41.98717 -75.11646 18837 ft 412 kts 121°
2026-04-30 08:17 41.97447 -75.08224 18411 ft 409 kts 121°
2026-04-30 08:17 41.96184 -75.04842 18016 ft 405 kts 121°
2026-04-30 08:17 41.94916 -75.01463 17622 ft 403 kts 121°
2026-04-30 08:18 41.93655 -74.98123 17227 ft 401 kts 121°
2026-04-30 08:18 41.92399 -74.94807 16834 ft 396 kts 121°
2026-04-30 08:18 41.91150 -74.91516 16438 ft 393 kts 121°
2026-04-30 08:18 41.89912 -74.88260 16045 ft 390 kts 121°
2026-04-30 08:19 41.88693 -74.85050 15664 ft 388 kts 121°
2026-04-30 08:19 41.87465 -74.81823 15291 ft 384 kts 121°
2026-04-30 08:19 41.86257 -74.78644 14915 ft 383 kts 122°
2026-04-30 08:19 41.85055 -74.75475 14549 ft 378 kts 121°
2026-04-30 08:20 41.83873 -74.72357 14177 ft 371 kts 121°
2026-04-30 08:20 41.82709 -74.69328 13805 ft 364 kts 121°
2026-04-30 08:20 41.81544 -74.66323 13454 ft 357 kts 121°
2026-04-30 08:20 41.80425 -74.63378 13131 ft 351 kts 120°
2026-04-30 08:21 41.79336 -74.60510 12806 ft 344 kts 121°
2026-04-30 08:21 41.78257 -74.57681 12488 ft 338 kts 121°
2026-04-30 08:21 41.77187 -74.54920 12162 ft 332 kts 122°
2026-04-30 08:21 41.76128 -74.52180 11859 ft 326 kts 121°
2026-04-30 08:22 41.75090 -74.49496 11550 ft 318 kts 121°
2026-04-30 08:22 41.74099 -74.46941 11297 ft 306 kts 121°
2026-04-30 08:22 41.73133 -74.44454 11044 ft 296 kts 121°
2026-04-30 08:22 41.72187 -74.42017 10801 ft 289 kts 121°
2026-04-30 08:23 41.71270 -74.39651 10557 ft 286 kts 121°
2026-04-30 08:23 41.70360 -74.37313 10332 ft 284 kts 121°
2026-04-30 08:23 41.69418 -74.34985 10102 ft 283 kts 126°
2026-04-30 08:23 41.68258 -74.32978 9886 ft 276 kts 141°
2026-04-30 08:24 41.66705 -74.31549 9660 ft 269 kts 159°
2026-04-30 08:24 41.64951 -74.30673 9431 ft 267 kts 167°
2026-04-30 08:24 41.63145 -74.30233 9233 ft 262 kts 182°
2026-04-30 08:24 41.61353 -74.30499 9037 ft 258 kts 197°
2026-04-30 08:25 41.59617 -74.31181 8830 ft 257 kts 200°
2026-04-30 08:25 41.57923 -74.31932 8645 ft 256 kts 201°
2026-04-30 08:25 41.56221 -74.32691 8495 ft 256 kts 201°
2026-04-30 08:25 41.54541 -74.33425 8346 ft 256 kts 200°
2026-04-30 08:26 41.52831 -74.34164 8196 ft 256 kts 200°
2026-04-30 08:26 41.51131 -74.34896 8046 ft 255 kts 200°
2026-04-30 08:26 41.49442 -74.35626 7891 ft 255 kts 200°
2026-04-30 08:26 41.47756 -74.36355 7738 ft 255 kts 201°
2026-04-30 08:27 41.46051 -74.37096 7586 ft 255 kts 201°
2026-04-30 08:27 41.44369 -74.37825 7436 ft 254 kts 201°
2026-04-30 08:27 41.42675 -74.38551 7283 ft 254 kts 199°
2026-04-30 08:27 41.40924 -74.38796 7123 ft 260 kts 174°
2026-04-30 08:28 41.39165 -74.38047 6979 ft 266 kts 160°
2026-04-30 08:28 41.37482 -74.37019 6956 ft 263 kts 159°
2026-04-30 08:28 41.35793 -74.36041 6954 ft 264 kts 161°
2026-04-30 08:28 41.34078 -74.35134 6954 ft 264 kts 163°
2026-04-30 08:29 41.32366 -74.34268 6953 ft 264 kts 163°
2026-04-30 08:29 41.30645 -74.33412 6958 ft 263 kts 163°
2026-04-30 08:29 41.28908 -74.32543 6953 ft 264 kts 163°
2026-04-30 08:29 41.27187 -74.31682 6949 ft 264 kts 163°
2026-04-30 08:30 41.25474 -74.30827 6949 ft 265 kts 163°
2026-04-30 08:30 41.23749 -74.29963 6959 ft 263 kts 163°
2026-04-30 08:30 41.22024 -74.29073 6958 ft 262 kts 162°
2026-04-30 08:30 41.20332 -74.28209 6960 ft 263 kts 163°
2026-04-30 08:31 41.18600 -74.27342 6958 ft 262 kts 163°
2026-04-30 08:31 41.16916 -74.26505 6957 ft 261 kts 163°
2026-04-30 08:31 41.15194 -74.25636 6960 ft 262 kts 163°
2026-04-30 08:31 41.13500 -74.24785 6965 ft 262 kts 162°
2026-04-30 08:32 41.11790 -74.23927 6965 ft 262 kts 162°
2026-04-30 08:32 41.10085 -74.23066 6967 ft 262 kts 163°
2026-04-30 08:32 41.08388 -74.22220 6966 ft 261 kts 163°
2026-04-30 08:32 41.06659 -74.21368 6753 ft 264 kts 163°
2026-04-30 08:33 41.04948 -74.20522 6501 ft 260 kts 163°
2026-04-30 08:33 41.03247 -74.19672 6248 ft 257 kts 163°
2026-04-30 08:33 41.01591 -74.18840 6002 ft 251 kts 163°
2026-04-30 08:33 40.99994 -74.18040 5762 ft 238 kts 163°
2026-04-30 08:34 40.98472 -74.17283 5502 ft 228 kts 163°
2026-04-30 08:34 40.97017 -74.16557 5245 ft 218 kts 163°
2026-04-30 08:34 40.95614 -74.15864 5013 ft 208 kts 163°
2026-04-30 08:34 40.94304 -74.15209 4790 ft 199 kts 162°
2026-04-30 08:35 40.93056 -74.14399 4558 ft 197 kts 155°
2026-04-30 08:35 40.91876 -74.13472 4328 ft 196 kts 153°
2026-04-30 08:35 40.90715 -74.12569 4099 ft 194 kts 154°
2026-04-30 08:35 40.89526 -74.11676 3868 ft 194 kts 154°
2026-04-30 08:36 40.88354 -74.10802 3637 ft 192 kts 154°
2026-04-30 08:36 40.87203 -74.09940 3409 ft 191 kts 154°
2026-04-30 08:36 40.86048 -74.09081 3177 ft 187 kts 154°
2026-04-30 08:36 40.84902 -74.08236 2948 ft 187 kts 155°
2026-04-30 08:37 40.83679 -74.07694 2712 ft 184 kts 178°
2026-04-30 08:37 40.82477 -74.08098 2597 ft 182 kts 206°
2026-04-30 08:37 40.81366 -74.08845 2555 ft 171 kts 204°
2026-04-30 08:37 40.80322 -74.09447 2378 ft 154 kts 203°
2026-04-30 08:38 40.79380 -74.10040 2160 ft 148 kts 205°
2026-04-30 08:38 40.78451 -74.10639 1954 ft 148 kts 203°
2026-04-30 08:38 40.77514 -74.11225 1746 ft 149 kts 204°
2026-04-30 08:38 40.76577 -74.11831 1537 ft 149 kts 204°
2026-04-30 08:39 40.75635 -74.12431 1327 ft 150 kts 204°
2026-04-30 08:39 40.74678 -74.13032 1115 ft 151 kts 204°
2026-04-30 08:39 40.73723 -74.13644 886 ft 153 kts 204°
2026-04-30 08:39 40.72781 -74.14260 636 ft 152 kts 204°
2026-04-30 08:40 40.71809 -74.14863 430 ft 153 kts 205°
2026-04-30 08:40 40.70853 -74.15466 237 ft 153 kts 205°
2026-04-30 08:40 40.69880 -74.16079 54 ft 153 kts 205°
2026-04-30 08:40 40.68958 -74.16660 13 ft 126 kts 206°
2026-04-30 08:41 40.68378 -74.17030 13 ft 59 kts 205°
2026-04-30 08:41 40.68070 -74.17236 13 ft 32 kts 213°
2026-04-30 08:41 40.67968 -74.17400 13 ft 21 kts 251°
2026-04-30 08:41 40.67966 -74.17581 13 ft 19 kts 292°
2026-04-30 08:42 40.68024 -74.17732 13 ft 15 kts 296°
2026-04-30 08:42 40.68071 -74.17843 13 ft 13 kts 319°
2026-04-30 08:42 40.68158 -74.17835 13 ft 13 kts 24°
2026-04-30 08:42 40.68244 -74.17779 12 ft 13 kts 27°
2026-04-30 08:43 40.68325 -74.17788 12 ft 12 kts 309°
2026-04-30 08:43 40.68366 -74.17888 13 ft 13 kts 296°
2026-04-30 08:43 40.68404 -74.17994 12 ft 12 kts 296°
2026-04-30 08:43 40.68446 -74.18099 12 ft 13 kts 304°
2026-04-30 08:44 40.68495 -74.18194 12 ft 12 kts 287°
2026-04-30 08:44 40.68507 -74.18299 12 ft 10 kts 275°
2026-04-30 08:44 40.68514 -74.18398 12 ft 11 kts 275°
2026-04-30 08:44 40.68523 -74.18500 12 ft 11 kts 281°
2026-04-30 08:45 40.68528 -74.18574 12 ft 5 kts 275°
2026-04-30 08:45 40.68537 -74.18621 12 ft 5 kts 290°
2026-04-30 08:45 40.68551 -74.18665 12 ft 4 kts 295°
2026-04-30 08:45 40.68555 -74.18675 12 ft 0 kts 296°